Weather History for Sisseton, SD

Change the Weather History Date:

Saturday, December 31, 2011

  Actual Average Record
Temperature  
Mean Temperature 31 °F 14 °F  
Max Temperature 35 °F 23 °F 53 °F (1904)
Min Temperature 27 °F 4 °F -27 °F (1967)
Degree Days  
Heating Degree Days 34 51  
Month to date heating degree days 1197 1489  
Since 1 July heating degree days 2767 3339  
Cooling Degree Days 0 0  
Month to date cooling degree days 0 0  
Year to date cooling degree days 642 527  
Moisture  
Dew Point 28 °F    
Average Humidity 85    
Maximum Humidity 100    
Minimum Humidity 69    
Precipitation  
Precipitation 0.00 in 0.01 in 0.46 in (2010)
Month to date precipitation 0.27 0.39  
Year to date precipitation 21.42 22.33  
Snow  
Snow 0.00 in - - ()
Month to date snowfall 1.1  
Since 1 July snowfall 1.8  
Snow Depth 0.00 in    
Sea Level Pressure  
Sea Level Pressure 29.72 in    
Wind  
Wind Speed 17 mph (NNE)    
Max Wind Speed 37 mph    
Max Gust Speed 47 mph    
T = Trace of Precipitation, MM = Missing Value Source: NWS Daily Summary

Daily Weather History Graph

Daily Weather History Graph

Search for Another Location

Airport:

Trip Planner

Search our weather history database for the weather conditions in past years. The results will help you decide how hot, cold, wet, or windy it might be!

Date:

Astronomy

Dec. 31, 2011 Rise Set
Actual Time 8:08 AM CST 4:53 PM CST
Civil Twilight 7:34 AM CST 5:27 PM CST
Nautical Twilight 6:56 AM CST 6:05 PM CST
Astronomical Twilight 6:20 AM CST 6:41 PM CST
Moon 11:30 AM CST (12/31) No Moon Set
Length of Visible Light 9h 53m
Length of Day
8h 44m
Waxing Crescent, 45% of the Moon is Illuminated
Dec 31
Waxing Crescent
Jan 1
First Quarter
Jan 9
Full
Jan 16
Last Quarter
Jan 23
New

Hourly Weather History & Observations

Time (CST) Temp. Windchill Dew Point Humidity Pressure Visibility Wind Dir Wind Speed Gust Speed Precip Events Conditions
12:56 AM 30.0 °F 21.1 °F 27.0 °F 88% 29.72 in - South 10.4 mph - N/A   Unknown
1:56 AM 30.0 °F 21.1 °F 28.0 °F 92% 29.70 in - South 10.4 mph - N/A   Unknown
2:56 AM 30.9 °F 21.7 °F 28.0 °F 89% 29.67 in - South 11.5 mph - N/A   Unknown
3:56 AM 30.9 °F 21.2 °F 28.0 °F 89% 29.65 in - South 12.7 mph - N/A   Unknown
4:56 AM 30.9 °F 20.7 °F 28.9 °F 92% 29.61 in - South 13.8 mph - N/A   Unknown
5:56 AM 30.9 °F 20.7 °F 30.0 °F 96% 29.57 in - SSE 13.8 mph - N/A   Unknown
6:56 AM 32.0 °F 20.8 °F 30.0 °F 92% 29.55 in - SSE 17.3 mph - N/A   Unknown
7:56 AM 32.0 °F 23.6 °F 30.9 °F 96% 29.55 in - SSE 10.4 mph - N/A   Unknown
8:56 AM 32.0 °F 24.8 °F 30.9 °F 96% 29.57 in - SE 8.1 mph - N/A   Unknown
9:56 AM 33.1 °F 27.7 °F 30.9 °F 92% 29.56 in - ESE 5.8 mph - N/A   Unknown
10:56 AM 33.1 °F 28.7 °F 30.9 °F 92% 29.57 in - ENE 4.6 mph - N/A   Unknown
11:56 AM 33.1 °F 28.7 °F 30.9 °F 92% 29.59 in - North 4.6 mph - N/A   Unknown
12:56 PM 33.1 °F 23.4 °F 30.9 °F 92% 29.60 in - North 13.8 mph - N/A   Unknown
1:56 PM 34.0 °F 24.2 °F 32.0 °F 92% 29.65 in - North 15.0 mph - N/A   Unknown
2:56 PM 34.0 °F 25.0 °F 30.9 °F 89% 29.70 in - North 12.7 mph - N/A   Unknown
3:56 PM 34.0 °F 23.8 °F 30.9 °F 89% 29.73 in - North 16.1 mph - N/A   Unknown
4:56 PM 33.1 °F 24.4 °F 30.9 °F 92% 29.77 in - North 11.5 mph - N/A   Unknown
5:56 PM 35.1 °F 22.5 °F 28.9 °F 78% 29.79 in - NNW 26.5 mph 32.2 mph N/A   Unknown
6:56 PM 34.0 °F 21.8 °F 27.0 °F 75% 29.85 in - NNW 23.0 mph 33.4 mph N/A   Unknown
7:56 PM 33.1 °F 17.8 °F 25.0 °F 72% 29.89 in - NNW 36.8 mph 47.2 mph N/A   Unknown
8:56 PM 30.0 °F 14.0 °F 24.1 °F 79% 29.96 in - NNW 34.5 mph 42.6 mph N/A   Unknown
9:56 PM 27.0 °F 10.8 °F 21.0 °F 78% 30.00 in - NNW 29.9 mph 39.1 mph N/A   Unknown
10:56 PM 28.0 °F 12.8 °F 21.9 °F 78% 30.04 in - NNW 27.6 mph 35.7 mph N/A   Unknown
11:56 PM 28.0 °F 13.0 °F 21.0 °F 75% 30.06 in - NNW 26.5 mph 34.5 mph N/A   Unknown